Theta_e
338 335 336 337 336 333 332 329 326 330 332 332 328 328 327 329 331 334 335 336 336 335 335 334 332 332 334 333 333 332 331 331 332
336 333 333 334 334 331 329 327 326 325 329 328 328 328 328 330 332 333 334 335 336 336 334 334 335 334 333 333 333 334 335 333 332
334 332 332 333 331 331 330 330 330 329 329 328 328 328 328 331 331 331 332 332 333 332 331 330 330 330 329 329 329 330 331 331 331
332 331 330 331 330 331 332 332 332 328 327 326 327 328 329 330 330 329 331 332 331 330 328 327 327 326 326 326 325 325 326 327 327
330 329 329 331 332 331 331 331 329 326 325 325 327 328 327 330 329 328 331 330 328 328 326 325 324 324 323 323 322 322 322 321 322
329 329 329 329 330 330 330 331 326 323 322 323 325 327 328 328 327 326 328 328 327 327 325 323 322 320 319 319 319 318 318 317 317
329 329 330 330 331 330 330 330 324 322 324 323 323 325 324 324 324 326 327 326 325 324 323 321 319 316 316 316 316 316 315 315 315
328 329 330 331 330 331 331 328 322 320 319 321 321 321 321 321 321 320 326 326 323 321 320 318 316 315 315 314 314 314 314 314 314
328 327 329 331 331 332 331 329 324 319 317 317 319 318 316 315 316 317 326 324 321 318 316 315 314 314 313 313 313 313 313 312 312
331 330 328 329 330 330 330 327 323 319 316 314 315 314 312 312 313 316 325 322 319 316 315 313 312 312 312 311 311 311 311 311 311
331 332 331 330 329 330 329 327 321 317 314 311 311 311 310 311 312 315 321 321 317 315 313 311 310 310 310 310 310 309 308 308 309
332 332 333 332 331 329 328 326 321 316 312 310 308 309 309 309 310 313 316 317 315 313 310 309 308 308 309 308 308 307 306 305 306
331 331 332 332 332 329 327 324 320 316 312 310 308 307 307 308 309 311 312 312 310 309 308 306 305 305 304 305 305 304 304 304 304
330 330 331 331 332 331 327 324 321 317 313 310 308 306 306 307 307 308 309 309 307 307 305 301 304 301 301 302 302 302 302 302 302
331 330 330 330 331 331 328 323 318 317 314 308 306 305 304 304 306 306 307 306 305 304 303 301 300 297 296 297 299 300 301 302 302
333 331 330 330 330 331 329 325 318 314 312 308 307 305 303 303 303 305 305 304 303 303 302 301 299 297 296 295 295 295 298 300 300
333 332 331 330 330 330 330 325 319 316 310 313 313 313 307 303 302 303 303 303 302 301 300 299 298 297 297 296 295 294 293 298 300
333 333 332 330 330 329 329 326 319 317 310 311 317 316 319 307 303 302 302 302 302 300 299 298 297 296 296 295 294 293 293 294 299
332 331 332 331 329 328 328 325 321 319 312 307 306 306 309 310 307 299 300 300 300 299 298 297 296 295 295 295 294 293 291 294 297
330 330 330 330 329 327 326 323 320 321 319 312 306 304 303 302 307 308 299 297 297 297 297 296 295 293 293 293 293 291 290 293 295
Wind_Speed
8 9 11 13 12 13 11 9 8 10 10 9 8 7 8 9 7 8 7 6 6 7 7 7 11 7 6 2 3 2 4 3 3
7 9 9 10 8 9 8 8 10 10 9 8 7 6 8 6 7 7 9 10 13 14 14 15 16 14 14 14 16 17 17 9 4
9 10 11 10 9 8 8 8 9 8 7 6 5 6 8 6 6 6 7 9 10 10 11 10 10 10 11 11 11 12 16 16 17
10 12 9 9 8 8 8 8 8 7 6 5 5 6 8 5 5 5 6 10 10 8 11 11 10 11 12 11 11 12 12 11 12
11 12 10 9 8 9 9 8 7 6 5 5 6 7 7 4 5 5 6 9 8 6 8 9 10 10 11 11 11 12 12 12 10
10 11 10 9 9 10 9 8 7 5 6 6 7 8 4 4 4 4 6 7 7 8 8 8 9 10 10 10 10 10 10 10 11
11 11 13 11 10 10 9 8 7 7 6 7 7 5 5 4 4 4 7 8 8 7 7 7 8 8 9 9 9 9 9 9 9
11 10 11 11 12 10 9 8 7 8 8 7 6 5 5 4 4 5 9 9 7 7 7 7 7 7 8 8 8 7 8 8 8
13 13 13 13 13 12 11 10 9 8 7 7 6 5 5 5 5 4 12 10 8 7 7 7 6 6 6 6 7 7 7 7 7
16 15 14 14 14 14 13 11 10 9 8 7 6 6 5 5 5 4 12 12 8 7 8 7 6 5 5 5 5 5 6 6 6
18 17 16 16 15 15 14 13 11 10 8 7 7 7 6 6 6 5 8 12 9 9 7 6 6 5 5 4 3 3 4 5 5
19 18 18 18 16 16 15 14 12 11 9 8 8 7 7 7 7 8 8 9 10 10 8 7 6 6 5 3 3 2 2 3 4
21 19 19 18 18 18 17 16 14 13 12 10 9 8 8 8 9 9 10 10 9 11 11 9 7 6 5 4 3 1 2 3 4
24 22 20 19 20 20 19 17 16 15 13 12 10 9 9 9 10 10 11 11 12 11 13 11 12 9 6 4 2 1 1 4 5
26 25 23 22 22 22 21 19 17 16 14 12 10 9 9 10 11 12 12 12 13 12 11 11 10 12 10 8 5 3 3 4 5
27 28 26 26 26 25 24 21 19 16 15 11 9 9 10 11 12 12 13 13 14 13 13 12 11 11 12 10 9 8 7 6 7
29 31 31 30 28 27 27 26 20 19 20 13 9 4 8 14 15 14 15 15 15 15 15 14 13 11 9 10 11 10 9 6 6
32 32 31 31 31 31 32 30 26 22 21 21 10 4 6 9 11 16 16 16 16 15 15 14 13 11 9 9 8 9 8 6 5
32 33 31 30 31 30 34 34 33 26 23 19 21 11 3 4 4 8 17 17 17 16 16 15 14 13 10 11 10 9 7 5 6
34 30 32 31 31 32 31 32 35 36 28 26 14 15 10 6 3 3 7 15 17 19 17 15 14 12 11 8 9 10 9 6 9
Wind_Direction
129 133 124 115 119 121 126 125 123 126 125 122 117 119 117 92 89 80 73 81 79 132 67 95 119 99 75 91 253 304 264 137 95
158 148 151 151 143 132 130 127 131 135 138 138 132 120 136 112 100 85 77 79 82 87 79 84 83 82 74 68 68 60 72 99 105
173 174 184 165 155 142 137 134 133 136 141 143 144 121 121 106 102 86 76 95 84 78 79 83 77 72 67 63 66 65 71 69 73
174 185 184 170 163 156 145 142 143 141 144 150 156 149 131 117 105 88 96 98 84 84 81 79 74 71 73 73 71 67 66 67 68
172 176 177 171 165 157 153 159 154 152 154 153 142 143 124 123 114 98 111 95 92 97 90 83 79 80 78 77 72 70 68 63 64
172 171 169 162 167 166 165 183 166 159 156 161 156 137 155 146 142 129 156 114 104 112 111 103 91 87 84 79 77 71 70 66 62
177 181 170 174 179 178 187 195 174 145 156 159 155 170 165 167 164 150 154 130 118 119 121 112 99 93 90 84 82 77 72 68 65
184 185 183 184 186 187 194 196 184 182 173 175 182 179 183 182 174 179 170 146 128 127 123 118 107 96 92 88 84 76 69 64 59
193 194 193 193 197 200 200 202 201 194 189 190 191 189 188 183 186 191 172 158 142 136 135 131 117 108 99 91 83 77 71 62 59
200 200 200 201 203 204 205 205 204 203 200 198 198 193 195 192 190 182 185 178 153 147 148 142 134 124 110 94 87 79 66 61 59
207 207 208 208 207 209 209 206 206 206 203 203 200 198 196 197 190 176 180 188 179 161 162 162 147 142 131 107 96 77 55 45 49
212 212 214 214 214 211 211 210 206 205 202 207 205 201 202 194 191 187 189 193 198 179 176 170 164 155 154 140 121 89 26 10 8
217 218 219 217 218 213 212 210 206 206 206 208 209 206 203 202 199 194 191 192 198 201 184 179 171 172 168 160 143 116 40 349 326
219 220 220 218 218 215 213 213 210 207 206 207 208 208 208 207 206 201 202 201 193 199 207 194 190 192 179 178 166 144 331 343 328
219 221 221 217 216 214 214 211 209 212 211 203 206 209 211 211 215 211 209 209 201 200 200 201 210 215 210 211 225 247 285 306 312
222 221 221 217 217 215 213 210 207 206 200 189 209 218 218 221 218 213 212 211 209 209 207 206 209 223 227 235 247 257 274 290 295
223 221 220 216 216 215 212 207 202 207 198 200 200 208 217 226 219 217 216 215 212 214 214 216 214 216 218 225 246 265 274 284 293
224 224 222 217 213 214 209 208 201 198 203 204 201 190 225 165 202 215 208 215 218 221 220 220 218 217 222 239 255 254 256 266 294
228 225 226 224 215 215 210 205 207 199 199 203 222 219 167 187 182 217 213 209 213 220 218 220 221 220 216 219 232 250 251 271 295
240 229 230 226 221 220 213 209 206 209 207 203 192 213 222 225 189 199 193 219 220 214 221 219 217 217 218 220 223 239 248 268 295